Flag for France

Past Weather in Valence (Drôme), Auvergne-Rhône-Alpes, France — Yesterday and Last 2 Weeks

Now
48 °F

Light rain. Broken clouds.


Feels Like: 45 °F
Forecast: 63 / 47 °F
Wind: 7 mph from Southeast

Location: Grenoble / St. Geoirs
Current Time: Sep 27, 2020 at 4:41:54 pm
Latest Report: Sep 27, 2020 at 4:00 pm
Visibility: N/A
Pressure29.80 "Hg
Humidity: 87%
Dew Point: 45 °F
Location of Valence (Drôme)Location

Past Weather in Valence (Drôme) — Graph

°F

Valence (Drôme) Temperature Yesterday

Maximum temperature yesterday: 54 °F (at 1:30 pm)
Minimum temperature yesterday: 39 °F (at 11:00 pm)
Average temperature yesterday: 46 °F

High & Low Weather Summary for the Past Weeks

 TemperatureHumidityPressure
High88 °F (Sep 13, 4:30 pm)100% (Sep 19, 8:00 am)30.30 "Hg (Sep 19, 8:00 am)
Low37 °F (Sep 27, 1:30 am)29% (Sep 14, 5:30 pm)29.68 "Hg (Sep 25, 12:30 pm)
Average65 °F72%30.01 "Hg
* Reported Sep 12 3:00 pm — Sep 27 3:00 pm, Valence (Drôme). Weather by CustomWeather, © 2020

Note: Actual official high and low records may vary slightly from our data, if they occured in-between our weather recording intervals... More about our weather records

Valence (Drôme) Weather History for the Previous 24 Hours

Scroll right to see more
 ConditionsComfort  
Time TempWeatherWind HumidityBarometerVisibility
3:00 pm
Sun, Sep 27
46 °FLight rain. Broken clouds.1 mph87%29.80 "Hg6 mi
2:30 pm46 °FLight rain. Broken clouds.3 mph87%29.80 "HgN/A
2:00 pm46 °FLight rain. Broken clouds.2 mph87%29.80 "HgN/A
1:30 pm46 °FLight rain. Broken clouds.3 mph87%29.80 "HgN/A
1:00 pm46 °FLight rain. Broken clouds.5 mph87%29.80 "HgN/A
12:30 pm46 °FLight rain. Mostly cloudy.3 mph87%29.80 "HgN/A
12:00 pm46 °FLight rain. Mostly cloudy.3 mph87%29.80 "HgN/A
11:30 am46 °FLight rain. Low clouds.6 mph93%29.80 "HgN/A
11:00 am45 °FLight rain. Fog.5 mph93%29.80 "Hg3 mi
10:30 am45 °FLight rain. Cloudy.6 mph93%29.80 "HgN/A
10:00 am45 °FLight rain. Mostly cloudy.5 mph93%29.80 "Hg6 mi
9:30 am43 °FLight rain. Partly sunny.5 mph100%29.80 "Hg4 mi
9:00 am43 °FLight rain. Broken clouds.5 mph93%29.80 "Hg4 mi
8:30 am43 °FLight rain. Broken clouds.5 mph93%29.80 "Hg4 mi
8:00 am41 °FLight rain. Overcast.2 mph100%29.77 "HgN/A
7:30 am41 °FPassing clouds.3 mph100%29.77 "HgN/A
7:00 am41 °FPassing clouds.2 mph93%29.77 "HgN/A
6:30 am39 °FClear.2 mph100%29.77 "Hg10 mi
6:00 am39 °FClear.3 mph100%29.74 "Hg10 mi
5:30 am39 °FPassing clouds.3 mph100%29.74 "HgN/A
5:00 am41 °FPassing clouds.2 mph93%29.77 "HgN/A
4:30 am41 °FOvercast.6 mph100%29.77 "HgN/A
4:00 am41 °FOvercast.3 mph100%29.77 "HgN/A
3:30 am41 °FOvercast.2 mph100%29.77 "HgN/A
3:00 am41 °FOvercast.3 mph100%29.80 "HgN/A
2:30 am41 °FMostly cloudy.1 mph93%29.80 "HgN/A
2:00 am39 °FMostly cloudy.3 mph100%29.80 "HgN/A
1:30 am37 °FPassing clouds.No wind100%29.80 "HgN/A
1:00 am39 °FPassing clouds.2 mph93%29.77 "HgN/A
12:30 am39 °FPassing clouds.1 mph100%29.77 "HgN/A
12:00 am39 °FPassing clouds.3 mph100%29.77 "HgN/A
11:30 pm
Sat, Sep 26
39 °FPassing clouds.2 mph100%29.77 "HgN/A
11:00 pm39 °FPassing clouds.3 mph100%29.77 "HgN/A
10:30 pm41 °FClear.3 mph93%29.77 "Hg10 mi
10:00 pm43 °FPassing clouds.1 mph93%29.77 "HgN/A
9:30 pm43 °FPassing clouds.3 mph93%29.77 "HgN/A
9:00 pm41 °FPassing clouds.3 mph93%29.77 "HgN/A
8:30 pm43 °FPassing clouds.3 mph87%29.77 "HgN/A
8:00 pm43 °FPartly cloudy.3 mph93%29.77 "HgN/A
7:30 pm45 °FPassing clouds.2 mph93%29.77 "HgN/A
7:00 pm45 °FPassing clouds.2 mph87%29.80 "HgN/A
6:30 pm46 °FPartly sunny.6 mph82%29.80 "HgN/A
6:00 pm46 °FPartly sunny.6 mph87%29.80 "HgN/A
5:30 pm46 °FBroken clouds.7 mph82%29.80 "HgN/A
5:00 pm46 °FLight rain. Partly sunny.8 mph87%29.80 "HgN/A
4:30 pm45 °FLight rain. Partly sunny.7 mph93%29.80 "Hg4 mi
4:00 pm50 °FBroken clouds.6 mph71%29.80 "HgN/A
Weather by CustomWeather, © 2020

See weather overview